Terug naar catalogus

STARLINK-30109

ActiefCommunicatieVLEO
NORAD 56298·PAYLOAD·🇺🇸 United States

Gelanceerd Apr 19, 2023 vanaf Cape Canaveral Space Force Station

Loading…

Volgende Passages (komende 24 uur)

TLE

VersSource: CelesTrak SupGP

Epoch: Sep 15, 2026, 02:34 UTC

1 56298C 23056N   26258.10743056 -.00100450  00000+0 -36373-2 0  2588
2 56298  42.9994 218.9758 0000979 271.8863 338.9736 15.27636620    17

Volg STARLINK-30109 in realtime met AllMySat

Download on the App Store